Home   Weather   Wageningen   Past weeks

Flag for Netherlands Past Weather in Wageningen, Netherlands — Yesterday and Last 2 Weeks

Now
30 °F

Passing clouds.


Feels Like: 30 °F
Forecast: 37 / 53 °F
Wind: 2 mph from North

Location: Deelen

Current Time: Apr 27, 2017 at 3:43:02 am

Latest Report: Apr 27, 2017 at 2:55 am


Visibility: N/A

Pressure: 30.01 "Hg

Humidity: 93%

Dew Point: 28 °F

Location of WageningenLocation

Past Weather in Wageningen — Graph

°F

Wageningen Temperature Yesterday

Maximum temperature yesterday: 50 °F (at 2:55 pm)
Minimum temperature yesterday: 30 °F (at 1:55 am)
Average temperature yesterday: 40 °F

High & Low Weather Summary for the Past Weeks

 TemperatureHumidityPressure
High59 °F (Apr 21, 1:55 pm)100% (Apr 12, 7:55 pm)30.63 "Hg (Apr 12, 7:55 pm)
Low23 °F (Apr 20, 6:55 am)35% (Apr 20, 2:25 pm)29.68 "Hg (Apr 25, 2:55 am)
Average44 °F76%30.13 "Hg
* Reported Apr 12 2:25 am — Apr 27 2:25 am, Wageningen, Weather by CustomWeather, © 2017

Note: Actual official high and low records may vary slightly from our data, if they occured in-between our weather recording intervals... More about our weather records

Advertising

Wageningen Weather History for the Previous 24 Hours

Scroll right to see more
 ConditionsComfort  
Time TempWeatherWind HumidityBarometerVisibility
2:25 am
Thu, Apr 27
30 °FChilly.1 mph93%30.01 "HgN/A
1:55 am30 °FChilly.1 mph100%30.01 "HgN/A
1:25 am32 °FChilly.1 mph93%30.01 "HgN/A
12:55 am34 °FChilly.2 mph87%30.01 "HgN/A
12:25 am36 °FPassing clouds.5 mph87%29.98 "HgN/A
11:55 pm
Wed, Apr 26
37 °FPassing clouds.5 mph81%29.98 "HgN/A
11:25 pm39 °FOvercast.3 mph81%29.98 "HgN/A
10:55 pm39 °FPassing clouds.5 mph81%29.98 "HgN/A
9:55 pm41 °FOvercast.5 mph76%29.98 "HgN/A
9:25 pm41 °FPartly cloudy.7 mph76%29.95 "HgN/A
8:55 pm43 °FPartly cloudy.5 mph66%29.95 "HgN/A
7:55 pm45 °FQuite cool.10 mph66%29.92 "HgN/A
7:28 pm48 °FCool.6 mph50%29.92 "HgN/A
6:55 pm46 °FScattered clouds.9 mph57%29.92 "HgN/A
6:25 pm48 °FPartly sunny.14 mph54%29.92 "HgN/A
5:55 pm48 °FMore clouds than sun.9 mph58%29.92 "HgN/A
5:25 pm46 °FBroken clouds.9 mph66%29.92 "HgN/A
4:55 pm50 °FPartly sunny.5 mph47%29.89 "HgN/A
4:25 pm48 °FPassing clouds.2 mph54%29.89 "HgN/A
3:55 pm45 °FLight rain. Broken clouds.9 mph57%29.92 "HgN/A
2:55 pm50 °FBroken clouds.7 mph47%29.89 "HgN/A
2:25 pm48 °FLight rain. Broken clouds.7 mph62%29.89 "HgN/A
1:55 pm48 °FScattered clouds.5 mph66%29.89 "HgN/A
1:25 pm46 °FBroken clouds.6 mph66%29.89 "HgN/A
12:55 pm43 °FBroken clouds.9 mph71%29.92 "HgN/A
12:25 pm41 °FDrizzle. Broken clouds.13 mph76%29.89 "HgN/A
11:55 am46 °FBroken clouds.5 mph53%29.89 "HgN/A
11:25 am45 °FBroken clouds.7 mph61%29.89 "HgN/A
10:55 am48 °FBroken clouds.6 mph54%29.89 "HgN/A
10:25 am46 °FPartly sunny.7 mph57%29.86 "HgN/A
9:55 am45 °FPassing clouds.6 mph61%29.86 "HgN/A
9:25 am43 °FPassing clouds.5 mph71%29.86 "HgN/A
8:55 am41 °FPassing clouds.5 mph81%29.86 "HgN/A
8:25 am37 °FPassing clouds.3 mph93%29.86 "HgN/A
7:55 am36 °FFog.1 mph93%29.86 "Hg6 mi
7:25 am34 °FFog.1 mph93%29.83 "Hg6 mi
6:55 am32 °FIce fog.1 mph100%29.83 "Hg6 mi
6:25 am32 °FOvercast.1 mph100%29.83 "HgN/A
5:55 am32 °FOvercast.2 mph93%29.83 "HgN/A
5:25 am30 °FPassing clouds.2 mph100%29.83 "HgN/A
4:55 am32 °FPassing clouds.1 mph93%29.83 "HgN/A
4:25 am34 °FPassing clouds.2 mph93%29.83 "HgN/A
3:55 am34 °FOvercast.2 mph93%29.83 "HgN/A
3:25 am32 °FMostly cloudy.2 mph100%29.83 "HgN/A
Weather by CustomWeather, © 2017

See weather overviewHow to use our weather pages